THORAD AGENA D DEB

Satellite information

Favourite Embed

Satellite Type and Status

DEBRISIN ORBIT

Key statistics

Satellite THORAD AGENA D DEB at a glance.

Uptime

20241

Days in orbit

Revolutions

≈ 13.7

Per day

Orbit

SSO

Sun Synchronous Orbit

Inclination

100.0

Latest

Satellite identification and parameters

Extended collection of information and parameters for THORAD AGENA D DEB.

Object identification

Identified? True

Debris? True

Object name: THORAD AGENA D DEB

International designator: 1970-025QV

Object number (NORAD): 42491

Object ID (CCSDS): 42491

Country: UNITED STATES OF AMERICA (US)

Current information (Y/N): Y

RCS size: SMALL

Orbital parameters

Period: 105.337 minutes

Inclination: 100.0021 deg

SMA: 7388.356 km

Apoapsis: 1017.539 km

Periapsis: 1002.903 km

RAAN: 166.0843 deg

Eccentricy: 0.0009905

Argument of periapsis: 16.1435 deg

Mean anomaly: 48.7764 deg

Mean motion: 13.67039499 rev/day

Mean motion (dot): 0.00001194 rev/day2

B* drag term: 0.001484 1/REarth

Two-line elements (TLE)

Creation date: April 9, 2025, 5:16 p.m.

Reference frame: TEME

Reference center: EARTH

Epoch: Oct. 1, 2024, 10:33 p.m. UTC

TLE line 0: 0 THORAD AGENA D DEB

TLE line 1: 1 42491U 70025QV 24275.94019887 .00001194 00000-0 14840-2 0 9994

TLE line 2: 2 42491 100.0021 166.0843 0009905 16.1435 48.7764 13.67039499694272

Live tracking on map

Real-time ground track for satellite THORAD AGENA D DEB.

In-orbit conjunctions

A list of the most updated potential collisions computed for object THORAD AGENA D DEB.

Target Orbit TCA Probability of collision Miss distance Type
SL-8 R/B LEO 2024-10-04 02:44:24 0.0001148214 168.0 (m) ROCKET BODY
COSMOS 1802 LEO 2024-09-05 02:51:56 0.000130935 255.0 (m) PAYLOAD

Associated space launch

Meteorological research and development satellite

THORAD AGENA D DEB was lifted into orbit during the mission ‘Thorad SLV-2G Agena D | Nimbus 4’, on board a Thorad SLV-2G Agena D space rocket.

The launch took place on April 8, 1970, 8:17 a.m. from Space Launch Complex 2E.

For more information about the launch, click the button.

Launch to space Thorad SLV-2G Agena D | Nimbus 4
Thorad SLV-2G Agena D | Nimbus 4

Agency: N/A

Status: Launch Successful

Launch date: April 8, 1970, 8:17 a.m. UTC

Rocket: Thorad SLV-2G Agena D

Launch pad: Space Launch Complex 2E

Location: Vandenberg SFB, CA, USA

...

Latest news about this satellite

There are no fresh news available about this satellite. Check back as we update our databases every day.


Newsletter sign-up

Weekly statistics, charts and insights to help you stay on top of the space industry.